www.pogodaiklimat.ru

Погода и климат >> Архив погоды >> Германия >> Гамбург


АРХИВ ПОГОДЫ в Гамбурге

Время (UTC), дата Ветер
(напр.,м/с)
 
Видим.   Явления Облачность Т
(С)
Тd
(С)
f
(%)
Тe
(С)
Тes
(С)
Комфортность P
(гПа)
Po
(гПа)
Тmin
(С)
Tmax
(С)
R
(мм)
R24
(мм)
S
(см)
17 16.01 ЮЗ 9 9000 м в посл. час морось 10/9 210 м
[St]
+5.5 +4.1 91 -1 -1 тепло 1001.0 999.2
16 16.01 ЮЗ 8 5000 м слаб. морось 10/9 240 м
[St]
+5.8 +4.5 91 0 0 тепло 1001.6 999.8
18 16.01 ЮЗ 9 12 км в посл. час морось {дождь} 10/9 200 м
[St]
+5.4 +3.7 89 -1 -1 по сезону 1000.2 998.4 +5.3 +7.7 0.0
19 16.01 ЮЗ 9 12 км слаб. дождь 10/9 330 м
[Sc]
+5.3 +3.0 85 -1 -1 тепло 999.4 997.6
20 16.01 ЮЗ 9 12 км слаб. дождь 10/9 330 м
[Sc]
+4.8 +2.6 86 -2 -2 по сезону 999.0 997.2
21 16.01 ЮЗ 9 14 км слаб. дождь 10/9 360 м
[Sc]
+4.8 +2.4 84 -1 -1 по сезону 998.2 996.4 0.1
23 16.01 ЮЗ 8 6000 м дождь 10/9 270 м
[Frnb]
+4.4 +2.9 90 -2 -2 тепло 996.6 994.8
22 16.01 ЮЗ 8 15 км слаб. дождь 10/9 420 м
[Sc]
+4.8 +2.2 83 -1 -1 тепло 997.2 995.4
00 17.01 ЮЗ 8 6000 м дождь 10/9 200 м
[Frnb]
+4.5 +3.1 91 -2 -2 по сезону 996.0 994.2 1
01 17.01 ЮЗ 7 6000 м дождь 10/9 240 м
[Frnb]
+4.6 +3.3 91 -1 -1 тепло 995.5 993.7
02 17.01 ЮЗ 7 9000 м слаб. дождь 10/9 240 м
[Frnb]
+4.8 +3.4 91 -1 -1 тепло 995.6 993.8
03 17.01 З 6 30 км в посл. час дождь 9/9 420 м
[Sc]
+4.6 +2.8 88 -1 -1 по сезону 995.9 994.1 2
05 17.01 ЮЗ 5 40 км 9/9 420 м
[Sc]
+4.5 +2.4 86 -0 -0 тепло 995.8 994.0
04 17.01 З 5 40 км в посл. час дождь 9/9 420 м
[Sc]
+4.4 +2.3 86 -1 -1 тепло 995.8 994.0
06 17.01 ЮЗ 7 35 км {дождь} 9/9 300 м
[Sc]
+4.6 +2.2 84 -1 -1 по сезону 996.0 994.2 +4.3 +5.4 3
07 17.01 ЮЗ 7 30 км 8/8 400 м
[Cu med, cong]
+4.6 +1.8 82 -1 -1 тепло 996.0 994.2
08 17.01 ЮЗ 7 30 км 9/8 480 м
[Cu med, cong]
+4.8 +1.6 80 -1 -1 тепло 996.2 994.4
09 17.01 ЮЗ 7 30 км 8/8 300 м
[Cu med, cong]
+4.9 +1.6 79 -1 -1 по сезону 996.2 994.4
11 17.01 ЮЗ 7 30 км 9/6 600 м
[Cu med, cong Ci fib]
+5.6 +1.5 75 +1 +1 тепло 996.3 994.5
10 17.01 ЮЗ 8 30 км 9/8 480 м
[Cu Sc]
+5.7 +1.8 76 0 0 тепло 996.5 994.7
12 17.01 ЮЗ 8 35 км 9/8 600 м
[Cu med, cong]
+5.9 +1.5 73 +1 +1 по сезону 996.0 994.2
13 17.01 З 6 18 км слаб. ливневой дождь 9/9 600 м
[Cb calv]
+5.7 +1.7 75 +1 +1 тепло 995.8 994.0
14 17.01 З 6 40 км в посл. час ливневой дождь 9/9 660 м
[Cb cap]
+4.9 +1.3 77 -0 -0 тепло 995.8 994.0
15 17.01 З 6 40 км в посл. час ливневой дождь 9/5 540 м
[Cb calv Ac As]
+4.5 +0.9 77 -1 -1 по сезону 996.5 994.7 0.0
17 17.01 З 5 40 км в посл. час ливневой дождь 9/9 450 м
[Cb calv]
+3.2 +0.9 85 -2 -2 тепло 998.0 996.2
16 17.01 З 5 40 км 9/9 500 м
[Sc]
+4.1 +1.0 80 -1 -1 тепло 997.3 995.5
18 17.01 З 5 12 км слаб. ливневой дождь 9/9 300 м
[Cb cap]
+2.7 +0.4 85 -3 -3 по сезону 998.7 996.9 +2.6 +5.9 0.2
19 17.01 СЗ 5 2800 м слаб. ливневой снег 9/9 240 м
[Cb cap]
+0.4 0.0 97 -6 -6 тепло 999.7 997.8
20 17.01 З 4 30 км слаб. ливневой снег 9/6 150 м
[Cb cap Ci sp]
+0.8 -0.3 92 -5 -5 по сезону 1001.0 999.1
21 17.01 С 5 2500 м слаб. ливневой снег 10/9 120 м
[Cb cap]
+0.1 -1.0 92 -6 -6 прохладно 1003.3 1001.4 3
23 17.01 СЗ 5 45 км в посл. час ливневой снег 9/4 240 м
[Cu Sc Ac trans Ci sp]
-0.6 -1.3 95 -7 -7 тепло 1007.2 1005.3
22 17.01 С 5 1700 м ливневой снег 10/10 120 м
[Cb cap]
-0.4 -1.0 96 -7 -7 по сезону 1005.6 1003.7
00 18.01 СЗ 5 50 км {ливн. осадки} 1/0
[Ac trans]
-1.4 -3.0 89 -8 -8 холодно 1008.5 1006.6 3 4
01 18.01 СЗ 4 50 км 1/1 900 м
[Sc]
-2.2 -3.6 90 -8 -8 тепло 1010.0 1008.1
02 18.01 СЗ 2-4
{5}
50 км ясно -2.7 -4.3 89 -7 -7 по сезону 1011.4 1009.5
03 18.01 СЗ 1 50 км 1/0
[Ac trans]
-3.5 -4.6 92 -6 -6 прохладно 1012.4 1010.5
05 18.01 ЮЗ 1-1
{2}
50 км местами туман поземный ясно -4.4 -5.3 93 -7 -7 тепло 1014.0 1012.1
04 18.01 СЗ 1-2
{2}
50 км ясно -4.1 -5.2 92 -7 -7 по сезону 1013.0 1011.1
06 18.01 штиль 0 40 км ясно -5.4 -6.0 96 -7 -7 прохладно 1014.7 1012.8 -6.0 +2.7 3 4
07 18.01 ЮЗ 1-2
{2}
30 км ясно -5.2 -5.9 95 -8 -8 по сезону 1015.0 1013.1
08 18.01 ЮЗ 3 40 км 1/1 1500 м
[Sc]
-3.5 -5.2 88 -9 -9 по сезону 1015.8 1013.9
09 18.01 ЮЗ 2 40 км 1/1 1500 м
[Sc]
-2.4 -4.4 86 -6 -6 прохладно 1016.1 1014.2
11 18.01 З 3 40 км осадки на расстоянии 9/9 900 м
[Cb calv]
+0.5 -1.5 86 -4 -4 тепло 1017.0 1015.1
10 18.01 З 2 40 км 3/3 1440 м
[Sc]
+0.1 -2.3 84 -3 -3 по сезону 1016.8 1014.9
12 18.01 З 3 40 км 5/5 300 м
[Cu Sc]
+1.5 -0.9 84 -3 -2 по сезону 1017.2 1015.3 3
13 18.01 З 3 35 км слаб. ливневой снег 9/9 300 м
[Cb calv]
+1.9 -0.3 85 -2 -2 тепло 1017.4 1015.5
14 18.01 З 3 40 км в посл. час дождь со снегом 8/8 240 м
[Cu Sc]
+1.7 +0.1 89 -3 -3 по сезону 1017.6 1015.7
15 18.01 З 4 40 км {ливн. осадки} 9/9 180 м
[St]
+1.3 0.0 91 -4 -4 прохладно 1018.1 1016.2 0.0
17 18.01 ЮЗ 2 30 км 6/6 240 м
[St]
+0.9 0.0 94 -3 -3 тепло 1018.5 1016.6
16 18.01 ЮЗ 2 40 км 5/5 150 м
[St]
+0.7 -0.2 94 -3 -3 по сезону 1018.4 1016.5
18 18.01 ЮЗ 2 30 км {ливн. осадки} 5/5 200 м
[St Ci fib]
+0.3 -0.5 94 -3 -3 по сезону 1018.7 1016.8 -5.8 +2.3 0.0 3
19 18.01 ЮЗ 2 20 км местами туман поземный 4/1 420 м
[Sc Ci fib]
-0.6 -1.5 94 -4 -4 тепло 1019.0 1017.1
20 18.01 ЮЗ 2 10 км местами туман поземный 4/1 420 м
[Sc Ci fib]
-1.0 -1.6 96 -5 -5 по сезону 1019.3 1017.4
21 18.01 ЮЗ 2 10 км местами туман поземный 4/1 420 м
[Sc Ci fib]
-1.6 -1.9 98 -6 -6 прохладно 1019.6 1017.7
23 18.01 ЮЗ 1 9000 м туман на расстоянии 4/1 420 м
[Sc Ci fib]
-2.7 -3.2 96 -5 -5 тепло 1019.8 1017.9
22 18.01 ЮЗ 1 10 км туман на расстоянии 4/1 420 м
[Sc Ci fib]
-1.1 -1.3 99 -3 -3 по сезону 1019.7 1017.8
00 19.01 ЮЗ 2 9000 м туман на расстоянии 3/1 300 м
[Sc Ci fib]
-1.8 -2.5 95 -6 -6 прохладно 1019.9 1018.0 3
01 19.01 ЮЗ 1 10 км туман на расстоянии 3/1 400 м
[Sc Ci fib]
-2.8 -3.4 96 -5 -5 тепло 1019.8 1017.9
02 19.01 Ю 1 9000 м туман на расстоянии 3/1 400 м
[Sc Ci fib]
-3.5 -4.1 96 -6 -6 по сезону 1019.8 1017.9
03 19.01 Ю 1 8000 м туман на расстоянии 3/0
[Ac trans Ci fib]
-3.3 -3.6 98 -6 -6 прохладно 1019.8 1017.9
05 19.01 Ю 1 10 км местами туман поземный 3/1 300 м
[St Ci fib]
-4.0 -4.3 98 -7 -7 тепло 1019.6 1017.7
04 19.01 Ю 1 9000 м туман на расстоянии 3/0
[Ac trans Ci fib]
-4.1 -4.5 97 -7 -7 по сезону 1019.7 1017.8
06 19.01 ЮЗ 1 9000 м туман на расстоянии 3/1 300 м
[St Ci fib]
-5.6 -6.4 94 -8 -8 прохладно 1019.5 1017.6 -5.6 +0.6 3
07 19.01 Ю 1 9000 м туман на расстоянии 3/0
[Ac trans Ci fib]
-4.3 -5.2 93 -7 -7 тепло 1019.6 1017.7
08 19.01 Ю 2 9000 м туман на расстоянии 3/0
[Ac trans Ci fib]
-3.9 -4.5 96 -8 -8 по сезону 1019.9 1018.0
09 19.01 В 1 9000 м местами туман поземный 3/0
[Ac trans Ci fib]
-2.8 -3.7 94 -5 -4 прохладно 1020.2 1018.3
11 19.01 ЮВ 2 12 км 3/0
[Ac trans Ci fib]
+0.9 -2.5 78 -2 -1 тепло 1020.3 1018.4
10 19.01 ЮВ 1 9000 м 3/0
[Ac trans Ci fib]
-0.7 -3.0 84 -3 -1 по сезону 1020.4 1018.5
12 19.01 ЮВ 1 12 км 3/0
[Ac trans Ci fib]
+1.8 -2.8 71 0 +2 по сезону 1019.8 1017.9 2
13 19.01 ЮВ 2 12 км 3/0
[Ac trans Ci fib]
+2.5 -2.8 68 -0 +1 тепло 1019.3 1017.4
14 19.01 ЮВ 2 18 км 4/0
[Ac trans Ci fib]
+2.7 -3.1 66 0 +1 тепло 1018.9 1017.0
15 19.01 ЮВ 3 18 км 4/0
[Ci fib]
+1.6 -3.1 71 -2 -2 по сезону 1018.6 1016.7
17 19.01 В 2 20 км 3/0
[Ci fib]
-0.7 -3.2 83 -4 -4 тепло 1018.6 1016.7
16 19.01 ЮВ 2 15 км 3/0
[Ci fib]
-0.3 -3.7 78 -4 -4 по сезону 1018.6 1016.7
18 19.01 В 3 15 км 1/0
[Ci fib]
-1.6 -4.3 82 -7 -7 холодно 1018.5 1016.6 -5.6 +3.0 2
19 19.01 В 3 12 км 1/0
[Ci fib]
-1.6 -3.8 85 -7 -7 тепло 1018.5 1016.6
20 19.01 В 1-2
{4}
15 км ясно -2.3 -3.6 91 -5 -5 по сезону 1018.5 1016.6
21 19.01 ЮВ 3 12 км ясно -2.7 -3.9 91 -8 -8 холодно 1018.4 1016.5
23 19.01 В 1 12 км туман на расстоянии 4/0
[Ci fib]
-3.1 -3.8 95 -6 -6 по сезону 1018.5 1016.6
22 19.01 ЮВ 2 12 км 5/0
[Ci]
-2.4 -3.8 90 -6 -6 по сезону 1018.4 1016.5
00 20.01 В 1 10 км туман на расстоянии ясно -4.3 -5.1 94 -7 -7 холодно 1018.3 1016.4 2
01 20.01 В 1-2
{2}
8000 м ясно -4.1 -4.7 96 -7 -7 по сезону 1018.3 1016.4
02 20.01 В 2-2
{2}
7000 м туман на расстоянии ясно -4.1 -4.8 95 -8 -8 по сезону 1018.2 1016.3
03 20.01 В 2 7000 м туман на расстоянии ясно -4.3 -5.1 94 -9 -9 очень
холодно
1018.3 1016.4
05 20.01 В 2 7000 м дымка 9/0
[Ac und]
-4.6 -5.6 93 -9 -9 по сезону 1018.1 1016.2
04 20.01 В 2 7000 м туман на расстоянии 4/0
[Ac und]
-4.9 -5.8 93 -9 -9 прохладно 1018.0 1016.1
06 20.01 В 2 6000 м дымка 9/0
[Ac trans]
-4.1 -5.5 90 -8 -8 холодно 1018.3 1016.4 -5.1 -0.5 2
07 20.01 ЮВ 2 6000 м дымка 8/0
[Ac trans]
-3.7 -5.1 90 -8 -8 по сезону 1018.5 1016.6
08 20.01 В 2 5000 м дымка 8/0
[Ac trans]
-4.1 -5.6 89 -8 -8 прохладно 1019.1 1017.2
09 20.01 В 2 6000 м дымка 8/0
[Ac trans]
-3.3 -5.0 88 -7 -7 холодно 1019.7 1017.8
11 20.01 В 1 7000 м дымка 5/1 90 м
[St Ac trans]
-1.5 -4.3 81 -4 -2 тепло 1020.4 1018.5
10 20.01 В 2 6000 м дымка 8/0
[Ac trans]
-2.5 -4.3 87 -7 -6 прохладно 1020.0 1018.1
12 20.01 В 1 7000 м дымка 3/1 120 м
[St Ac trans]
-0.4 -3.7 78 -2 -1 прохладно 1020.4 1018.5 2
13 20.01 Ю 1 8000 м 1/0
[Ac trans]
+0.7 -3.8 72 -1 +1 тепло 1020.3 1018.4
14 20.01 Ю 2 7000 м мгла 1/0
[Ac trans]
0.0 -3.4 78 -3 -3 по сезону 1020.4 1018.5
15 20.01 Ю 3 5000 м дымка 1/1 120 м
[St Ac trans]
-2.0 -4.1 86 -7 -7 холодно 1020.8 1018.9
17 20.01 Ю 3 3200 м дымка 6/6 90 м
[St]
-4.0 -5.0 93 -9 -9 по сезону 1021.5 1019.6
16 20.01 Ю 3 4600 м дымка 1/0 120 м
[Ac trans Ci fib]
-3.1 -4.5 90 -8 -8 прохладно 1021.1 1019.2
18 20.01 ЮВ 3 2500 м дымка 10/9 <50 м
[St]
-3.8 -4.7 93 -9 -9 очень
холодно
1021.8 1019.9 -4.4 +1.8 2
19 20.01 ЮВ 2 2500 м дымка 10/9 30 м
[St]
-4.2 -5.0 94 -9 -9 по сезону 1022.3 1020.4
20 20.01 ЮВ 1 2200 м дымка 10/10 30 м
[St]
-4.2 -4.9 95 -7 -7 по сезону 1022.7 1020.8
21 20.01 ЮВ 2 1400 м дымка 10/9 30 м
[St]
-4.5 -5.4 93 -9 -9 очень
холодно
1023.1 1021.2
23 20.01 Ю 2 2500 м дымка 10/10 60 м
[St]
-4.7 -5.5 94 -9 -9 по сезону 1023.4 1021.5
22 20.01 ЮВ 3 2500 м дымка 10/9 30 м
[St]
-4.5 -5.3 94 -10 -10 по сезону 1023.3 1021.4
00 21.01 Ю 2 2200 м в посл. час снег 10/10 <50 м
[St]
-4.6 -5.6 93 -9 -9 холодно 1023.5 1021.6 0.0 2
01 21.01 Ю 2 3000 м дымка 9/9 90 м
[St]
-4.9 -5.8 93 -9 -9 по сезону 1023.5 1021.6
02 21.01 Ю 3 2700 м дымка 9/9 90 м
[St]
-4.7 -5.5 94 -10 -10 по сезону 1023.4 1021.5
03 21.01 Ю 2 2800 м дымка 9/9 30 м
[St]
-4.8 -5.7 93 -9 -9 холодно 1022.8 1020.9
05 21.01 Ю 4 4500 м дымка 3/3 90 м
[St]
-5.6 -6.9 91 -12 -12 по сезону 1021.9 1019.9
04 21.01 Ю 2 3500 м дымка 8/5 90 м
[St Ac trans]
-5.5 -6.4 93 -10 -10 по сезону 1022.7 1020.7
06 21.01 Ю 3 6000 м дымка 3/1 100 м
[St Ac trans]
-5.9 -7.3 90 -12 -12 очень
холодно
1021.8 1019.8 -5.9 -3.8 0.0 2
07 21.01 Ю 2 7000 м дымка 8/0
[Ac und]
-6.1 -7.6 89 -11 -11 по сезону 1022.1 1020.1
08 21.01 ЮЗ 4 5000 м дымка 9/0
[Ac und]
-5.4 -7.4 86 -12 -12 прохладно 1021.7 1019.7
09 21.01 ЮЗ 4 6000 м дымка 8/0
[Ac As]
-5.0 -7.0 86 -11 -11 очень
холодно
1021.4 1019.5
11 21.01 ЮЗ 4 7000 м слаб. снег 10/9 330 м
[Sc]
-2.8 -5.6 81 -9 -9 по сезону 1020.8 1018.9
10 21.01 ЮЗ 4-6
{6}
3800 м дымка н/о -3.5 -6.0 83 -10 -10 прохладно 1021.3 1019.4
12 21.01 ЮЗ 4 8000 м в посл. час снег 10/9 450 м
[Sc]
-1.9 -5.3 78 -8 -8 холодно 1020.0 1018.1 0.0 2
13 21.01 ЮЗ 3 9000 м 10/9 400 м
[Sc]
-1.1 -4.9 75 -6 -6 тепло 1019.7 1017.8
14 21.01 ЮЗ 3 10 км 8/8 360 м
[Sc]
-0.5 -4.2 76 -5 -5 по сезону 1019.1 1017.2
15 21.01 ЮЗ 3 10 км 6/6 400 м
[Sc]
-1.4 -4.5 79 -6 -6 прохладно 1018.8 1016.9
17 21.01 ЮЗ 2 12 км 6/6 270 м
[St]
-2.0 -4.4 84 -6 -6 тепло 1018.3 1016.4
16 21.01 ЮЗ 2 10 км 4/3 1260 м
[Sc Ac trans]
-2.4 -5.1 82 -6 -6 по сезону 1018.3 1016.4
18 21.01 ЮЗ 2 12 км 9/9 200 м
[St]
-0.6 -3.3 82 -4 -4 по сезону 1018.1 1016.2 -6.1 -0.4 0.0 2
19 21.01 ЮЗ 3 12 км 10/9 270 м
[St]
-0.3 -3.0 82 -5 -5 тепло 1017.8 1015.9
20 21.01 ЮЗ 3 12 км в посл. час ливневой снег 6/6 210 м
[St]
-0.7 -2.8 86 -6 -6 по сезону 1017.4 1015.5
21 21.01 ЮЗ 2 12 км {ливн. осадки} 4/4 210 м
[Sc]
-2.0 -4.1 86 -6 -6 прохладно 1017.1 1015.2 0.3
23 21.01 ЮЗ 3 800 м туман 10/10 30 м
[St]
-0.8 -1.4 96 -6 -6 тепло 1016.7 1014.8
22 21.01 ЮЗ 4 10 км в посл. час ливневой снег 10/9 210 м
[Cb cap]
-1.1 -2.4 91 -7 -7 по сезону 1017.1 1015.2
00 22.01 ЮЗ 3 800 м туман {ливн. осадки} 10/10 30 м
[St]
-0.6 -1.0 97 -6 -6 прохладно 1016.0 1014.1 0.0 3
01 22.01 ЮЗ 3 1200 м слаб. ливневой снег {туман} 10/10 30 м
[St]
-0.6 -0.9 98 -6 -6 тепло 1015.6 1013.7
02 22.01 ЮЗ 3 2000 м в посл. час ливневой снег 10/10 30 м
[St]
-0.6 -0.9 98 -6 -6 по сезону 1014.9 1013.0
03 22.01 ЮЗ 3 3000 м дымка {ливн. осадки} 10/10 120 м
[St]
-0.6 -1.2 96 -6 -6 прохладно 1013.9 1012.0 0.1
05 22.01 Ю 4 4500 м дымка 10/9 210 м
[St]
-0.1 -1.5 90 -6 -6 тепло 1012.6 1010.7
04 22.01 Ю 2 4500 м дымка 10/9 180 м
[St]
-0.1 -0.9 94 -4 -4 по сезону 1013.2 1011.3
06 22.01 Ю 3 7000 м дымка {ливн. осадки} 9/9 200 м
[St]
-0.6 -2.6 86 -5 -5 по сезону 1012.3 1010.4 -2.2 +0.1 0.4 3
07 22.01 ЮВ 3 7000 м дымка 6/3 1440 м
[Sc Ac trans]
-1.8 -3.5 88 -7 -7 тепло 1011.8 1009.9
08 22.01 ЮВ 4 7000 м дымка 5/1 1440 м
[Sc Ac trans Ci fib]
-2.0 -4.0 86 -8 -8 по сезону 1011.5 1009.6
09 22.01 ЮВ 5 10 км 8/0
[Ac trans Ci fib]
-1.7 -4.4 82 -8 -8 холодно 1010.9 1009.0
11 22.01 ЮВ 6 12 км 9/0
[Cs]
-0.6 -6.2 66 -7 -6 по сезону 1009.6 1007.7
10 22.01 ЮВ 4 10 км 9/0
[Ac trans Cs]
-1.3 -5.0 76 -7 -6 по сезону 1010.4 1008.5
12 22.01 ЮВ 7 15 км 9/0
[Cs]
-0.5 -6.0 66 -7 -7 холодно 1008.5 1006.6 3
13 22.01 ЮВ 8 15 км 8/0
[Cs]
+0.2 -6.3 62 -7 -7 по сезону 1007.6 1005.7
14 22.01 ЮВ 7 16 км 8/0
[Cs]
+0.4 -6.1 62 -6 -6 по сезону 1006.6 1004.7
15 22.01 ЮВ 6 16 км 8/0
[Cs]
+0.7 -5.5 63 -5 -5 прохладно 1005.7 1003.8
17 22.01 ЮВ 6 16 км 6/0
[Cs]
-0.2 -5.8 66 -6 -6 тепло 1004.9 1003.0
16 22.01 ЮВ 6 16 км 8/0
[Cs]
0.0 -4.9 70 -6 -6 по сезону 1005.2 1003.3
18 22.01 ЮВ 6 20 км 9/0
[Ac trans Cs]
-0.7 -7.1 62 -7 -7 прохладно 1004.6 1002.7 -2.4 +0.8 3
19 22.01 ЮВ 6 20 км 8/0
[Ci sp]
-1.6 -7.1 66 -8 -8 по сезону 1004.2 1002.3
20 22.01 ЮВ 6 20 км 8/0
[Ci sp]
-1.8 -7.0 68 -9 -9 по сезону 1003.9 1002.0
21 22.01 ЮВ 6 20 км 6/0
[Ci sp]
-2.1 -6.6 71 -9 -9 холодно 1003.9 1002.0
23 22.01 ЮВ 5 15 км 6/0
[Ci fib]
-3.0 -6.5 77 -10 -10 по сезону 1003.3 1001.4
22 22.01 ЮВ 5 16 км 6/0
[Ac trans Ci fib]
-2.7 -6.4 76 -9 -9 по сезону 1003.8 1001.9
00 23.01 ЮВ 5 12 км 6/0
[Ci fib]
-3.6 -6.6 80 -10 -10 холодно 1003.2 1001.3 3
01 23.01 ЮВ 5 10 км 6/0
[Ac trans Ci fib]
-4.0 -6.7 81 -11 -11 по сезону 1002.6 1000.7
02 23.01 ЮВ 5 9000 м 6/0
[Ac trans Ci fib]
-4.3 -6.6 84 -11 -11 по сезону 1002.4 1000.5
03 23.01 ЮВ 4 8000 м 8/1 300 м
[St Ci fib]
-4.3 -6.8 83 -11 -11 очень
холодно
1002.2 1000.3
05 23.01 ЮВ 4 6000 м дымка 9/8 270 м
[St Ci fib]
-5.1 -7.1 86 -12 -12 по сезону 1002.6 1000.7
04 23.01 ЮВ 5 6000 м дымка 8/3 270 м
[St Ci fib]
-4.8 -7.2 83 -12 -12 прохладно 1002.3 1000.4
06 23.01 ЮВ 5 6000 м дымка 9/9 200 м
[St]
-5.1 -7.4 84 -12 -12 очень
холодно
1002.6 1000.7 -5.3 -0.6 3
07 23.01 ЮВ 4 6000 м дымка 9/6 270 м
[St Ac trans]
-5.5 -7.9 83 -12 -12 по сезону 1003.0 1001.1
08 23.01 ЮВ 5 7000 м дымка 9/6 330 м
[St Ac trans]
-5.5 -8.0 83 -13 -13 прохладно 1003.3 1001.4
09 23.01 ЮВ 4 8000 м 8/5 300 м
[St Ac trans]
-5.5 -8.1 82 -12 -12 очень
холодно
1003.6 1001.7
11 23.01 ЮВ 5 8000 м 9/9 360 м
[Sc]
-4.5 -7.5 80 -11 -11 по сезону 1004.0 1002.1
10 23.01 ЮВ 4 8000 м 9/9 330 м
[St]
-4.9 -7.8 80 -11 -11 прохладно 1003.9 1002.0
12 23.01 ЮВ 4 8000 м 9/9 330 м
[Sc]
-4.4 -7.4 80 -11 -11 очень
холодно
1004.0 1002.1 3
13 23.01 В 5 8000 м 9/9 330 м
[Sc]
-4.2 -7.2 80 -11 -11 по сезону 1004.2 1002.3
14 23.01 В 5 7000 м мгла 9/3 330 м
[Cu hum Ci sp]
-4.0 -7.4 77 -11 -11 холодно 1004.2 1002.3

 

Местоположение метеостанции Гамбург (Германия): широта 53.63 долгота 10.00 высота над уровнем моря 16 м.

В архиве по умолчанию представлена погода в Гамбурге за последнюю неделю. Архивные данные за месяц целиком и за предыдущие месяцы, начиная с января 2011 года, Вы можете получить, выбрав интересующий диапазон дат из раскрывающегося списка и нажав кнопку "Ввод!".


*Определитесь, кто Вы:
робот инопланетянин человек

Внимание! Время в таблицах - всемирное. Для получения местного времени необходимо прибавить поправку, которая равна 1 ч.

Смотрите также архив погоды в соседних городах и на ближайших метеорологических станциях:

Погода в Квикборне (Германия) (14 км)
Погода в Итцехоэ (Германия) (48 км)
Погода в Любек-Бланкензее (Германия) (51 км)
Погода в Бойценбурге (Германия) (52 км)
Погода в Бремерфёрде (Германия) (57 км)
Погода в Дёрнике (Германия) (64 км)
Погода в Солтау (Германия) (71 км)
Погода в Пельцерхакене (Германия) (76 км)
Погода в Фасберге (Германия) (80 км)
Погода в Эльперсбюттеле (Германия) (81 км)

Пояснения к столбцам:

Ветер - указаны скорость ветра в м/с - средняя за 10 мин, порывы в срок и между сроками (в фигурных скобках) и направление, откуда дует ветер: С - северный, СВ - северо-восточный, В - восточный, ЮВ - юго-восточный, Ю - южный, ЮЗ - юго-западный, З - западный, СЗ - северо-западный.
Видимость - горизонтальная дальность видимости в метрах или километрах. При видимости от 1 до 10 км при отсутствии осадков обычно наблюдается дымка, при ухудшении видимости до 1 км и менее - туман. В сухую погоду видимость может ухудшаться дымом, пылью или мглою.
Явления - указаны атмосферные явления, наблюдавшиеся в срок или в последний час перед сроком; фигурными скобками обозначены явления, наблюдавшиеся между сроками (за 1-3 часа до срока); квадратными скобками обозначены град или гололедные отложения с указанием их диаметра в мм.
Облачность - указаны через наклонную черту общая и нижняя облачность в баллах и высота нижней границы облаков в метрах; квадратными скобками обозначены формы облаков: Ci - перистые, Cs - перисто-слоистые, Cc - перисто-кучевые, Ac - высококучевые, As - высокослоистые, Sc - слоисто-кучевые, Ns - слоисто-дождевые, Cu - кучевые, Cb - кучево-дождевые. Подробнее классификацию облаков см. в Атласе облаков (PDF).
T - Температура воздуха - температура, измеренная на высоте 2 м над землей.
Td - Температура точки росы - температура, при понижении до которой содержащийся в воздухе водяной пар достигнет насыщения.
f - Относительная влажность воздуха - влажноcть воздуха, измеренная на высоте 2 м над землей.
Te - Эффективная температура - температура, которую ощущает одетый по сезону человек в тени. Характеристика душности погоды. При расчете учитывается влияние влажности воздуха и скорости ветра на теплоощущения человека.
Tes - Эффективная температура на солнце - температура, которую ощущает человек, с поправкой на солнечный нагрев. Характеристика знойности погоды. Зависит от высоты солнца над горизонтом, облачности и скорости ветра. Ночью, в пасмурную погоду, а также при ветре 12 м/с и более поправка равна нулю.
P - Атмосферное давление - приведенное к уровню моря атмосферное давление.
Po - Атмосферное давление - измеренное на уровне метеостанции атмосферное давление.
Tmin - Минимальная температура - минимум температуры воздуха на высоте 2 м над землей.
Tmax - Максимальная температура - максимум температуры воздуха на высоте 2 м над землей.
R - Количество осадков - Количество выпавших осадков за период времени, мм. При наведении курсора мыши на число - период времени, за который выпало указанное количество осадков.
R24 - Количество осадков - Количество выпавших осадков за 24 часа, мм.
S - Снежный покров - Высота снежного покрова, см. При наведении курсора мыши на число - состояние снежного покрова и степень покрытия местности в баллах.